Location: Hawks Ness
(60.2333°N, 1.1667°W)
Time: 23:02:03
(UTC+00:00)

Resurs 1-4 Rocket - Pass Details

Date: 22 October 2019
Orbit: 800 x 813 km, 98.6° (Epoch: 12 November)

Event Time Altitude Azimuth Distance (km) Brightness Sun altitude
Rises 05:32:30 0° 23° (NNE) 3,350 5.6 -11.6°
Reaches altitude 10° 05:36:25 10° 354° (N) 2,417 4.5 -11.1°
Maximum altitude 05:38:20 12° 333° (NNW) 2,275 4.2 -10.8°
Drops below altitude 10° 05:40:16 10° 311° (NW) 2,415 4.1 -10.6°
Enters shadow 05:40:52 - 305° (NW) 2,513 4.2 -10.5°
